Starlink 32294

operational
NORAD ID: 61675 Int'l Des: 2024-193 Owner: SPXS Country: US Constellation: starlink
LEOCIRCULAR

Über Starlink 32294

Beschreibung wird geladen...

Live-Position

3D-Globus wird geladen...

Nächste Überflüge

Höhenverlauf

Altitude vs Time

uPlot chart will show altitude changes over time

Zweizeiliger Elementsatz

1 61675U 24193Q 25259.19393863 -.00001334 00000-0 -32929-4 0 9991
2 61675 53.1586 181.2992 0001343 71.4373 288.6774 15.30179466 49819
Epoch: 16. Sept. 2025 • Age: 9 hours

Aktueller Status

Höhe 490.4 km
Geschwindigkeit 7.62 km/s
Subsatellitenpunkt -42.63°S, 155.76°W
Startdatum 26. Okt. 2024
Alter 0.8 years
Typ internet

Technische Details

Klassifizierung Payload
Masse 730.00 kg
Trockenmasse 700.00 kg
Gesamtmasse 730.00 kg
Länge 0.30 m
Durchmesser 4.10 m
Spannweite 29.00 m
Form Box + pan
Hersteller SPXS
Bus-Typ Starlink V2M
Phasenstatus In Orbit
Besitzer/Staat SPXS/US

Große Konstellationen

Loading constellations...